Miscellaneous Local Product
Issued by NWS Hastings, NE

Home | Current Version | Previous Version | Text Only | Print | Product List | Glossary Off
Versions: 1 2 3 4 5 6 7 8 9 10 11 12 13 14 15 16 17 18 19 20 21 22 23 24 25 26 27 28 29 30 31 32 33 34 35 36 37 38 39 40 41 42 43 44 45 46 47 48 49 50

000
AXUS43 KGID 021102
MISGRI

GID CWA HOURLY WEATHER ROUNDUP
NATIONAL WEATHER SERVICE HASTINGS NE
600 AM CDT THU JUL 02 2015

NOTE: "FAIR" INDICATES FEW OR NO CLOUDS BELOW 12,000 FEET WITH NO
SIGNIFICANT WEATHER AND/OR OBSTRUCTIONS TO VISIBILITY.

...SOUTH CENTRAL NEBRASKA...

CITY           SKY/WX    TMP DP  RH WIND       PRES   REMARKS
GRAND ISLAND   CLOUDY    68  67  96 S5        29.96F FOG
HASTINGS       CLOUDY    69  68  96 SE7       29.95F FOG
KEARNEY        CLOUDY    70  66  88 CALM      29.97S THUNDER

...NEBRASKA PANHANDLE...

CITY           SKY/WX    TMP DP  RH WIND       PRES   REMARKS
CHADRON        MOCLDY    60  57  89 W8        30.06R
ALLIANCE       CLOUDY    59  57  93 S9        30.07F
SCOTTSBLUFF    MOCLDY    60  32  34 S5        30.12F
SIDNEY         LGT RAIN  58  57  97 E13       30.18F

...WESTERN AND NORTH CENTRAL NEBRASKA...

CITY           SKY/WX    TMP DP  RH WIND       PRES   REMARKS
VALENTINE      CLOUDY    64  62  93 W6        29.97R
BROKEN BOW     CLOUDY    69  62  78 NW23G30   29.96F
IMPERIAL       LGT RAIN  61  57  87 N20G33    30.11R
NORTH PLATTE   RAIN      63  58  83 N15G28    30.07R
MCCOOK         HVY RAIN  64  60  87 N30G43    30.05R FOG

...EASTERN NEBRASKA...

CITY           SKY/WX    TMP DP  RH WIND       PRES   REMARKS
NORFOLK        HVY RAIN  62  61  96 E6        29.97R FOG
SO SIOUX CITY  CLOUDY    60  54  80 E7        29.97S
TEKAMAH        CLOUDY    63  58  83 NE3       29.95F
COLUMBUS       CLOUDY    66  59  77 E5        29.96S
OMAHA EPPLEY   CLOUDY    65  59  81 VRB7      29.95R
OFFUTT AFB     MOCLDY    64  60  87 NE6       29.94R
LINCOLN        CLOUDY    68  64  87 E7        29.95R
FALLS CITY     CLOUDY    69  67  93 NE7       29.90R FOG

...NORTHERN KANSAS...

CITY           SKY/WX    TMP DP  RH WIND       PRES   REMARKS
GOODLAND       CLOUDY    66  60  81 NW8       30.05R
HILL CITY      MOCLDY    73  66  78 E7        29.95F
NORTON         PTSUNNY   73  63  68 E9        29.95S
PHILLIPSBURG   RAIN      75  72  88 NE7       29.95F
SMITH CENTER   CLOUDY    72  68  88 E6        29.95F
HAYS           PTCLDY    72  63  73 N6        29.94F
RUSSELL        CLOUDY    71  69  93 NE6       29.92S
CONCORDIA      CLOUDY    72  69  90 NE5       29.93R
SALINA         CLOUDY    77  71  82 NE5       29.89S
TOPEKA         CLOUDY    73  70  90 N6        29.87R



USA.gov is the U.S. government's official web portal to all federal, state and local government web resources and services.